Overview Statistics Trail Chart Weather Telemetry Raw packets
 

This is the latest recevied weather packets stored in our database for station/object K0NV. If no packets are shown the sender has not sent any weather packets the latest 10 day(s).

<< 1 2 3 4 5 6 >>
Time Temp. Humidity Pressure Rain* Wind** Luminosity Snow
1788564011 35° C 46% 1014.8 hPa 0 mm - 40 W/m² -
1788563706 35° C 46% 1014.9 hPa 0 mm - 55 W/m² -
1788563401 35° C 46% 1014.8 hPa 0 mm - 50 W/m² -
1788563100 35° C 46% 1014.9 hPa 0 mm - 69 W/m² -
1788562795 35° C 46% 1014.9 hPa 0 mm - 37 W/m² -
1788562492 35.56° C 45% 1014.9 hPa 0 mm - 36 W/m² -
1788562186 36.11° C 44% 1014.9 hPa 0 mm - 49 W/m² -
1788561883 36.11° C 43% 1014.8 hPa 0 mm - 55 W/m² -
1788561582 36.67° C 42% 1014.7 hPa 0 mm - 99 W/m² -
1788561281 36.67° C 42% 1014.9 hPa 0 mm - 138 W/m² -
1788560977 37.22° C 40% 1014.9 hPa 0 mm - 202 W/m² -
1788560673 36.11° C 42% 1014.7 hPa 0 mm - 288 W/m² -
1788560373 36.11° C 43% 1015 hPa 0 mm - 59 W/m² -
1788560067 36.11° C 43% 1014.9 hPa 0 mm - 276 W/m² -
1788559763 37.22° C 42% 1015 hPa 0 mm - 66 W/m² -
1788559462 36.67° C 41% 1014.9 hPa 0 mm - 324 W/m² -
1788559158 36.11° C 42% 1014.9 hPa 0 mm - 363 W/m² -
1788558852 35.56° C 42% 1014.9 hPa 0 mm - 391 W/m² -
1788558548 36.11° C 43% 1015.2 hPa 0 mm - 379 W/m² -
1788558244 36.11° C 43% 1015.3 hPa 0 mm - 353 W/m² -
1788557943 36.11° C 42% 1015.1 hPa 0 mm - 85 W/m² -
1788557637 35.56° C 42% 1015.1 hPa 0 mm - 78 W/m² -
1788557334 36.11° C 42% 1015.1 hPa 0 mm - 52 W/m² -
1788557033 36.67° C 42% 1015.1 hPa 0 mm - 70 W/m² -
1788556729 36.11° C 41% 1015.1 hPa 0 mm - 83 W/m² -

* Rain latest hour (hover to see other rain measurements)
** Current wind speed in m/s (hover to see current wind gust speed)